Flag for USA Past Weather in Bryan – College Station, Texas, USA — Yesterday and Last 2 Weeks

Now
67 °F

Mostly cloudy.


Feels Like: 67 °F
Forecast: 44 / 68 °F
Wind: 15 mph from South

Location: Easterwood Field

Current Time: Feb 26, 2017 at 1:10:11 pm

Latest Report: Feb 26, 2017 at 11:53 am


Visibility: 10 mi

Pressure: 29.99 "Hg

Humidity: 66%

Dew Point: 55 °F

Location of Bryan – College StationLocation

Past Weather in Bryan – College Station — Graph

°F

Bryan – College Station Temperature Yesterday

Maximum temperature yesterday: 64 °F (at 4:53 pm)
Minimum temperature yesterday: 44 °F (at 6:53 am)
Average temperature yesterday: 53 °F

High & Low Weather Summary for the Past Weeks

 TemperatureHumidityPressure
High86 °F (Feb 11, 2:53 pm)100% (Feb 18, 3:04 am)30.21 "Hg (Feb 18, 3:04 am)
Low36 °F (Feb 16, 6:53 am)23% (Feb 22, 4:53 pm)29.57 "Hg (Feb 23, 4:53 pm)
Average63 °F72%29.94 "Hg
* Reported Feb 11 11:00 am — Feb 26 11:53 am, Bryan – College Station, Weather by CustomWeather, © 2017

Note: Actual official high and low records may vary slightly from our data, if they occured in-between our weather recording intervals... More about our weather records

Advertising

Bryan – College Station Weather History for the Previous 24 Hours

Scroll right to see more
 ConditionsComfort  
Time TempWeatherWind HumidityBarometerVisibility
11:53 am
Sun, Feb 26
67 °FMostly cloudy.15 mph66%29.99 "Hg10 mi
10:53 am61 °FMostly cloudy.12 mph67%30.01 "Hg10 mi
9:53 am56 °FMore clouds than sun.7 mph70%30.03 "Hg10 mi
8:53 am54 °FOvercast.12 mph69%30.02 "Hg10 mi
7:53 am49 °FScattered clouds.5 mph66%30.01 "Hg10 mi
6:53 am46 °FClear.6 mph66%30.01 "Hg10 mi
5:53 am46 °FClear.3 mph63%30.00 "Hg10 mi
4:53 am47 °FClear.3 mph59%30.00 "Hg10 mi
3:53 am47 °FClear.7 mph56%29.99 "Hg10 mi
2:53 am47 °FClear.7 mph59%30.01 "Hg10 mi
1:53 am48 °FClear.9 mph56%30.03 "Hg10 mi
12:53 am49 °FClear.6 mph52%30.04 "Hg9 mi
11:53 pm
Sat, Feb 25
50 °FClear.5 mph48%30.06 "Hg10 mi
10:53 pm51 °FClear.6 mph44%30.08 "Hg10 mi
9:53 pm53 °FClear.5 mph39%30.09 "Hg10 mi
8:53 pm54 °FClear.5 mph38%30.09 "Hg10 mi
7:53 pm55 °FPassing clouds.6 mph35%30.09 "Hg10 mi
6:53 pm58 °FPassing clouds.6 mph31%30.07 "Hg10 mi
5:53 pm60 °FPartly sunny.6 mph30%30.07 "Hg10 mi
4:53 pm64 °FSunny.6 mph24%30.07 "Hg10 mi
3:53 pm63 °FSunny.8 mph26%30.08 "Hg10 mi
2:53 pm63 °FSunny.10 mph26%30.11 "Hg10 mi
1:53 pm62 °FSunny.12 mph27%30.13 "Hg10 mi
Weather by CustomWeather, © 2017

See weather overviewHow to use our weather pages